College Station, TX

12:58 PM CST on January 21, 2018 (GMT -0600)
Easterwood

Weather History for KCLL - November, 2011

Change the Weather History Date:

Saturday, November 5, 2011

  Actual Average Record
Temperature  
Mean Temperature 59 °F 65 °F  
Max Temperature 77 °F 75 °F 87 °F (1922)
Min Temperature 40 °F 54 °F 30 °F (1991)
Degree Days  
Heating Degree Days 6 4  
Month to date heating degree days 32 16  
Since 1 July heating degree days 70 53  
Cooling Degree Days 0 3  
Month to date cooling degree days 7 18  
Year to date cooling degree days 3945 3030  
Growing Degree Days 8 (Base 50)    
Moisture  
Dew Point 43 °F    
Average Humidity 56    
Maximum Humidity 73    
Minimum Humidity 38    
Precipitation  
Precipitation 0.00 in 0.11 in 1.34 in (2014)
Month to date precipitation T 0.57  
Year to date precipitation 14.13 34.18  
Sea Level Pressure  
Sea Level Pressure 30.01 in    
Wind  
Wind Speed 10 mph (SSE)    
Max Wind Speed 24 mph    
Max Gust Speed 30 mph    
Visibility 10 miles    
Events      
T = Trace of Precipitation, MM = Missing Value Source: NWS Daily Summary

Daily Weather History Graph

Daily Weather History Graph

Search for Another Location

Airport or City:

Trip Planner

Search our weather history database for the weather conditions in past years. The results will help you decide how hot, cold, wet, or windy it might be!

Date:

Astronomy

Nov. 05, 2011 Rise Set
Actual Time 7:43 AM CDT 6:34 PM CDT
Civil Twilight 7:18 AM CDT 6:59 PM CDT
Nautical Twilight 6:49 AM CDT 7:28 PM CDT
Astronomical Twilight 6:21 AM CDT 7:56 PM CDT
Moon 3:37 PM CDT (11/5) 3:11 AM CDT (11/5)
Length of Visible Light 11h 41m
Length of Day
10h 51m
Waxing Gibbous, 78% of the Moon is Illuminated
Nov 5
Waxing Gibbous
Nov 10
Full
Nov 18
Last Quarter
Nov 25
New
Dec 2
First Quarter

Hourly Weather History & Observations

Time (CDT) Temp. Dew Point Humidity Pressure Visibility Wind Dir Wind Speed Gust Speed Precip Events Conditions
12:53 AM 48.9 °F 27.0 °F 43% 30.09 in 10.0 mi Calm Calm - N/A   Clear
1:53 AM 45.0 °F 27.0 °F 49% 30.09 in 10.0 mi Calm Calm - N/A   Clear
2:53 AM 45.0 °F 27.0 °F 49% 30.09 in 10.0 mi Calm Calm - N/A   Clear
3:53 AM 42.8 °F 28.4 °F 57% 30.08 in 10.0 mi Calm Calm - N/A   Clear
4:53 AM 43.0 °F 28.9 °F 58% 30.07 in 10.0 mi Calm Calm - N/A   Clear
5:53 AM 41.0 °F 30.0 °F 65% 30.07 in 10.0 mi Calm Calm - N/A   Clear
6:53 AM 42.8 °F 32.0 °F 66% 30.08 in 10.0 mi Calm Calm - N/A   Clear
7:53 AM 41.0 °F 33.1 °F 73% 30.09 in 10.0 mi Calm Calm - N/A   Clear
8:53 AM 48.0 °F 36.0 °F 63% 30.08 in 10.0 mi Variable 4.6 mph - N/A   Clear
9:53 AM 55.4 °F 37.4 °F 51% 30.08 in 10.0 mi East 6.9 mph - N/A   Clear
10:53 AM 62.1 °F 42.1 °F 48% 30.09 in 10.0 mi ESE 10.4 mph - N/A   Clear
11:53 AM 66.9 °F 48.0 °F 51% 30.06 in 10.0 mi SSE 17.3 mph 23.0 mph N/A   Clear
12:53 PM 72.0 °F 51.1 °F 48% 30.01 in 10.0 mi SSE 18.4 mph 24.2 mph N/A   Clear
1:53 PM 73.0 °F 50.0 °F 44% 29.99 in 10.0 mi South 15.0 mph 23.0 mph N/A   Clear
2:53 PM 75.2 °F 48.2 °F 38% 29.94 in 10.0 mi South 18.4 mph 24.2 mph N/A   Clear
3:53 PM 75.9 °F 51.1 °F 42% 29.91 in 10.0 mi SSE 24.2 mph 29.9 mph N/A   Clear
4:53 PM 75.9 °F 51.1 °F 42% 29.89 in 10.0 mi SSE 21.9 mph 25.3 mph N/A   Scattered Clouds
5:53 PM 73.9 °F 53.1 °F 48% 29.89 in 10.0 mi SE 16.1 mph 23.0 mph N/A   Overcast
6:53 PM 72.0 °F 54.0 °F 53% 29.91 in 10.0 mi SSE 16.1 mph 27.6 mph N/A   Overcast
7:53 PM 71.1 °F 54.0 °F 55% 29.93 in 10.0 mi SSE 13.8 mph 20.7 mph N/A   Overcast
8:53 PM 70.0 °F 55.0 °F 59% 29.93 in 10.0 mi SE 16.1 mph - N/A   Overcast
9:53 PM 68.0 °F 57.0 °F 68% 29.96 in 10.0 mi SE 12.7 mph - N/A   Overcast
10:53 PM 66.9 °F 57.9 °F 73% 29.94 in 10.0 mi SE 15.0 mph 25.3 mph N/A   Scattered Clouds
11:53 PM 66.9 °F 57.9 °F 73% 29.96 in 10.0 mi SSE 10.4 mph - N/A   Overcast